RYR5RK GMMX-GMFO

Flight info

Callsign RYR5RK
Flight time 1h 3m
Altitude 34000
Route OBOGA DCT ABDOR UH400 AGOVA UM372 FES UA411 ROMOR
Aircraft B738/M-SDE2E3FGHIRWXY/LB1

Departure

Time 2026-04-21 11:55
Airport Marrakesh Menara Airport (GMMX)

Arrival

Time 2026-04-21 12:58
Airport Oujda Angads Airport (GMFO)
Time Latitude Longitude Altitude Speed Heading
2026-04-21 11:42 31.60324 -8.02380 1538 ft 0 kts 186°
2026-04-21 11:48 31.60345 -8.02378 1534 ft 4 kts 183°
2026-04-21 11:48 31.60372 -8.02377 1528 ft 4 kts 176°
2026-04-21 11:49 31.60399 -8.02382 1528 ft 4 kts 163°
2026-04-21 11:49 31.60411 -8.02386 1528 ft 0 kts 156°
2026-04-21 11:51 31.60405 -8.02379 1528 ft 3 kts 123°
2026-04-21 11:51 31.60401 -8.02329 1538 ft 10 kts 95°
2026-04-21 11:52 31.60394 -8.02246 1539 ft 10 kts 96°
2026-04-21 11:52 31.60388 -8.02164 1540 ft 10 kts 95°
2026-04-21 11:52 31.60381 -8.02084 1536 ft 10 kts 95°
2026-04-21 11:52 31.60402 -8.02039 1537 ft 6 kts 18°
2026-04-21 11:53 31.60441 -8.02034 1540 ft 0 kts
2026-04-21 11:53 31.60463 -8.02030 1541 ft 8 kts
2026-04-21 11:53 31.60528 -8.02011 1533 ft 7 kts
2026-04-21 11:54 31.60549 -8.02061 1539 ft 12 kts 281°
2026-04-21 11:54 31.60581 -8.02406 1537 ft 76 kts 276°
2026-04-21 11:54 31.60658 -8.03258 1522 ft 133 kts 276°
2026-04-21 11:54 31.60778 -8.04500 1675 ft 162 kts 278°
2026-04-21 11:55 31.60904 -8.05819 2159 ft 174 kts 278°
2026-04-21 11:55 31.61031 -8.07280 2774 ft 170 kts 277°
2026-04-21 11:55 31.61150 -8.08661 3464 ft 173 kts 275°
2026-04-21 11:55 31.61279 -8.10171 3728 ft 200 kts 274°
2026-04-21 11:56 31.61424 -8.11872 4002 ft 216 kts 272°
2026-04-21 11:56 31.61577 -8.13653 4400 ft 225 kts 272°
2026-04-21 11:56 31.61755 -8.15534 4689 ft 243 kts 279°
2026-04-21 11:56 31.62491 -8.17331 5361 ft 251 kts 309°
2026-04-21 11:57 31.63938 -8.18531 5967 ft 264 kts 337°
2026-04-21 11:57 31.65778 -8.18787 6532 ft 272 kts
2026-04-21 11:57 31.67516 -8.17947 7168 ft 273 kts 42°
2026-04-21 11:57 31.68689 -8.16256 7845 ft 266 kts 65°
2026-04-21 11:58 31.69569 -8.14319 8425 ft 274 kts 68°
2026-04-21 11:58 31.70455 -8.12222 8631 ft 299 kts 68°
2026-04-21 11:58 31.71397 -8.09982 9177 ft 309 kts 68°
2026-04-21 11:58 31.72368 -8.07704 9873 ft 314 kts 68°
2026-04-21 11:59 31.73372 -8.05366 10325 ft 330 kts 67°
2026-04-21 11:59 31.74446 -8.02876 10569 ft 350 kts 67°
2026-04-21 11:59 31.75566 -8.00301 11154 ft 358 kts 66°
2026-04-21 11:59 31.76708 -7.97685 11867 ft 362 kts 66°
2026-04-21 12:00 31.77862 -7.95043 12574 ft 366 kts 65°
2026-04-21 12:00 31.79038 -7.92348 13266 ft 372 kts 65°
2026-04-21 12:00 31.80227 -7.89619 13976 ft 377 kts 65°
2026-04-21 12:00 31.81426 -7.86866 14693 ft 380 kts 65°
2026-04-21 12:01 31.82634 -7.84088 15419 ft 383 kts 65°
2026-04-21 12:01 31.83741 -7.81226 16101 ft 387 kts 73°
2026-04-21 12:01 31.84411 -7.78151 16710 ft 390 kts 83°
2026-04-21 12:01 31.84886 -7.74999 17423 ft 393 kts 84°
2026-04-21 12:02 31.85346 -7.71820 18158 ft 396 kts 84°
2026-04-21 12:02 31.86300 -7.65413 19367 ft 403 kts 83°
2026-04-21 12:02 31.86801 -7.62156 19993 ft 406 kts 83°
2026-04-21 12:03 31.87311 -7.58872 20641 ft 407 kts 82°
2026-04-21 12:03 31.87818 -7.55611 21381 ft 407 kts 82°
2026-04-21 12:03 31.88332 -7.52302 21884 ft 413 kts 81°
2026-04-21 12:03 31.89100 -7.49023 22364 ft 421 kts 70°
2026-04-21 12:04 31.90352 -7.45885 22937 ft 425 kts 63°
2026-04-21 12:04 31.91751 -7.42801 23496 ft 428 kts 62°
2026-04-21 12:04 31.93176 -7.39699 23939 ft 432 kts 62°
2026-04-21 12:04 31.94600 -7.36573 24386 ft 436 kts 63°
2026-04-21 12:05 31.95543 -7.34481 24680 ft 438 kts 63°
2026-04-21 12:05 31.96963 -7.31300 25138 ft 441 kts 63°
2026-04-21 12:05 31.98852 -7.27031 25706 ft 445 kts 64°
2026-04-21 12:05 31.99818 -7.24845 25985 ft 448 kts 64°
2026-04-21 12:06 32.01263 -7.21572 26397 ft 451 kts 63°
2026-04-21 12:06 32.02715 -7.18287 26873 ft 452 kts 63°
2026-04-21 12:06 32.04174 -7.15002 27325 ft 454 kts 63°
2026-04-21 12:06 32.05644 -7.11701 27718 ft 457 kts 63°
2026-04-21 12:07 32.07131 -7.08358 28096 ft 461 kts 63°
2026-04-21 12:07 32.08605 -7.05040 28496 ft 463 kts 63°
2026-04-21 12:07 32.10117 -7.01632 28890 ft 466 kts 64°
2026-04-21 12:07 32.11607 -6.98269 29259 ft 469 kts 64°
2026-04-21 12:08 32.13123 -6.94844 29631 ft 471 kts 64°
2026-04-21 12:08 32.14639 -6.91413 29962 ft 474 kts 64°
2026-04-21 12:08 32.16168 -6.87951 30268 ft 477 kts 64°
2026-04-21 12:08 32.17706 -6.84465 30551 ft 479 kts 64°
2026-04-21 12:09 32.19250 -6.80964 30868 ft 480 kts 63°
2026-04-21 12:09 32.20795 -6.77461 31155 ft 482 kts 63°
2026-04-21 12:09 32.22346 -6.73947 31406 ft 485 kts 63°
2026-04-21 12:09 32.23910 -6.70402 31711 ft 486 kts 63°
2026-04-21 12:10 32.25472 -6.66858 32086 ft 485 kts 63°
2026-04-21 12:10 32.27025 -6.63331 32476 ft 484 kts 63°
2026-04-21 12:10 32.28580 -6.59795 32827 ft 484 kts 63°
2026-04-21 12:10 32.30133 -6.56257 33150 ft 485 kts 63°
2026-04-21 12:11 32.31627 -6.52851 33488 ft 485 kts 63°
2026-04-21 12:11 32.33177 -6.49315 33830 ft 484 kts 63°
2026-04-21 12:11 32.34723 -6.45782 34128 ft 484 kts 63°
2026-04-21 12:11 32.36252 -6.42287 34421 ft 484 kts 64°
2026-04-21 12:12 32.37797 -6.38750 34693 ft 484 kts 64°
2026-04-21 12:12 32.39344 -6.35209 34952 ft 484 kts 63°
2026-04-21 12:12 32.41104 -6.31819 35188 ft 486 kts 53°
2026-04-21 12:12 32.43299 -6.28774 35455 ft 485 kts 44°
2026-04-21 12:13 32.45837 -6.26143 35698 ft 484 kts 34°
2026-04-21 12:13 32.48590 -6.23846 35962 ft 484 kts 33°
2026-04-21 12:13 32.51372 -6.21595 36209 ft 484 kts 32°
2026-04-21 12:13 32.54145 -6.19351 36468 ft 484 kts 33°
2026-04-21 12:14 32.56920 -6.17078 36693 ft 484 kts 33°
2026-04-21 12:14 32.59684 -6.14787 36853 ft 486 kts 33°
2026-04-21 12:14 32.62461 -6.12465 36834 ft 490 kts 33°
2026-04-21 12:15 32.68028 -6.07787 36836 ft 489 kts 33°
2026-04-21 12:15 32.73496 -6.03192 36838 ft 482 kts 33°
2026-04-21 12:16 32.78980 -5.98588 36852 ft 482 kts 33°
2026-04-21 12:16 32.84474 -5.93970 36841 ft 482 kts 33°
2026-04-21 12:17 32.89937 -5.89371 36858 ft 482 kts 33°
2026-04-21 12:17 32.95439 -5.84730 36863 ft 483 kts 33°
2026-04-21 12:18 33.00898 -5.80117 36854 ft 483 kts 33°
2026-04-21 12:18 33.06380 -5.75478 36878 ft 485 kts 33°
2026-04-21 12:19 33.11880 -5.70816 36852 ft 486 kts 33°
2026-04-21 12:19 33.17384 -5.66144 36876 ft 486 kts 33°
2026-04-21 12:20 33.22891 -5.61462 36903 ft 486 kts 33°
2026-04-21 12:20 33.28402 -5.56769 36896 ft 486 kts 33°
2026-04-21 12:21 33.33899 -5.52080 36890 ft 486 kts 34°
2026-04-21 12:21 33.39405 -5.47375 36911 ft 486 kts 34°
2026-04-21 12:22 33.44872 -5.42698 36909 ft 486 kts 34°
2026-04-21 12:22 33.50370 -5.37984 36911 ft 486 kts 34°
2026-04-21 12:23 33.55862 -5.33264 36910 ft 486 kts 34°
2026-04-21 12:23 33.61367 -5.28524 36922 ft 485 kts 34°
2026-04-21 12:24 33.66856 -5.23791 36915 ft 485 kts 34°
2026-04-21 12:24 33.72336 -5.19059 36899 ft 485 kts 34°
2026-04-21 12:25 33.77816 -5.14318 36887 ft 485 kts 34°
2026-04-21 12:25 33.83256 -5.09603 36891 ft 485 kts 34°
2026-04-21 12:26 33.88711 -5.04850 36885 ft 485 kts 37°
2026-04-21 12:26 33.91180 -5.02063 36884 ft 485 kts 50°
2026-04-21 12:26 33.93186 -4.98781 36883 ft 484 kts 60°
2026-04-21 12:26 33.94690 -4.95165 36868 ft 481 kts 72°
2026-04-21 12:27 33.95808 -4.91376 36897 ft 479 kts 73°
2026-04-21 12:27 33.97936 -4.83765 36884 ft 480 kts 73°
2026-04-21 12:28 34.00089 -4.76197 36882 ft 480 kts 73°
2026-04-21 12:28 34.02303 -4.68575 36850 ft 481 kts 73°
2026-04-21 12:29 34.04522 -4.60961 36860 ft 481 kts 73°
2026-04-21 12:29 34.06735 -4.53340 36863 ft 482 kts 73°
2026-04-21 12:30 34.08946 -4.45696 36868 ft 483 kts 73°
2026-04-21 12:30 34.11152 -4.38049 36874 ft 483 kts 73°
2026-04-21 12:31 34.13371 -4.30381 36896 ft 483 kts 73°
2026-04-21 12:31 34.15612 -4.22708 36622 ft 488 kts 73°
2026-04-21 12:31 34.16735 -4.18853 36357 ft 484 kts 73°
2026-04-21 12:32 34.17836 -4.15043 36094 ft 478 kts 73°
2026-04-21 12:32 34.18898 -4.11258 35835 ft 471 kts 73°
2026-04-21 12:32 34.19927 -4.07521 35578 ft 467 kts 73°
2026-04-21 12:32 34.20939 -4.03819 35316 ft 463 kts 73°
2026-04-21 12:33 34.21945 -4.00139 35079 ft 460 kts 73°
2026-04-21 12:33 34.22948 -3.96475 34840 ft 457 kts 73°
2026-04-21 12:33 34.23933 -3.92881 34596 ft 455 kts 73°
2026-04-21 12:33 34.24928 -3.89252 34357 ft 453 kts 73°
2026-04-21 12:34 34.25919 -3.85640 34119 ft 452 kts 73°
2026-04-21 12:34 34.26904 -3.82045 33868 ft 449 kts 73°
2026-04-21 12:34 34.27877 -3.78487 33529 ft 444 kts 73°
2026-04-21 12:34 34.28840 -3.74965 33166 ft 440 kts 73°
2026-04-21 12:35 34.29794 -3.71471 32786 ft 436 kts 73°
2026-04-21 12:35 34.30740 -3.67999 32433 ft 433 kts 73°
2026-04-21 12:35 34.31679 -3.64547 32054 ft 430 kts 73°
2026-04-21 12:35 34.32608 -3.61129 31692 ft 427 kts 73°
2026-04-21 12:36 34.33533 -3.57723 31333 ft 424 kts 73°
2026-04-21 12:36 34.34439 -3.54383 30985 ft 421 kts 73°
2026-04-21 12:36 34.35360 -3.50981 30620 ft 419 kts 73°
2026-04-21 12:36 34.36253 -3.47679 30277 ft 417 kts 73°
2026-04-21 12:37 34.37172 -3.44315 29916 ft 415 kts 73°
2026-04-21 12:37 34.38070 -3.41058 29507 ft 412 kts 72°
2026-04-21 12:37 34.38976 -3.37781 29121 ft 408 kts 72°
2026-04-21 12:37 34.39871 -3.34541 28762 ft 405 kts 72°
2026-04-21 12:38 34.40761 -3.31317 28393 ft 401 kts 72°
2026-04-21 12:38 34.41638 -3.28128 28029 ft 398 kts 72°
2026-04-21 12:38 34.42511 -3.24948 27657 ft 395 kts 72°
2026-04-21 12:38 34.43371 -3.21810 27296 ft 393 kts 72°
2026-04-21 12:39 34.44227 -3.18683 26940 ft 390 kts 72°
2026-04-21 12:39 34.45079 -3.15566 26584 ft 388 kts 72°
2026-04-21 12:39 34.45922 -3.12482 26228 ft 385 kts 72°
2026-04-21 12:39 34.46762 -3.09401 25879 ft 383 kts 72°
2026-04-21 12:40 34.47597 -3.06337 25529 ft 381 kts 72°
2026-04-21 12:40 34.48424 -3.03296 25172 ft 379 kts 72°
2026-04-21 12:40 34.49247 -3.00268 24842 ft 377 kts 72°
2026-04-21 12:40 34.50067 -2.97251 24492 ft 376 kts 72°
2026-04-21 12:41 34.50880 -2.94253 24144 ft 374 kts 72°
2026-04-21 12:41 34.51691 -2.91261 23805 ft 372 kts 72°
2026-04-21 12:41 34.52497 -2.88284 23446 ft 371 kts 72°
2026-04-21 12:41 34.53302 -2.85307 23048 ft 370 kts 72°
2026-04-21 12:42 34.54100 -2.82352 22669 ft 368 kts 72°
2026-04-21 12:42 34.54892 -2.79417 22307 ft 365 kts 72°
2026-04-21 12:42 34.55677 -2.76506 21959 ft 363 kts 72°
2026-04-21 12:42 34.56464 -2.73599 21628 ft 360 kts 72°
2026-04-21 12:43 34.57244 -2.70761 21293 ft 358 kts 72°
2026-04-21 12:43 34.58033 -2.67901 20954 ft 355 kts 72°
2026-04-21 12:43 34.58810 -2.65075 20621 ft 353 kts 72°
2026-04-21 12:43 34.59586 -2.62248 20291 ft 351 kts 72°
2026-04-21 12:44 34.60350 -2.59455 19963 ft 349 kts 72°
2026-04-21 12:44 34.61101 -2.56655 19636 ft 347 kts 72°
2026-04-21 12:44 34.61841 -2.53865 19308 ft 345 kts 72°
2026-04-21 12:44 34.62573 -2.51101 18969 ft 344 kts 72°
2026-04-21 12:45 34.63300 -2.48351 18523 ft 340 kts 73°
2026-04-21 12:45 34.64022 -2.45623 17965 ft 339 kts 73°
2026-04-21 12:45 34.64742 -2.42905 17401 ft 337 kts 73°
2026-04-21 12:45 34.65456 -2.40205 16876 ft 333 kts 73°
2026-04-21 12:46 34.66160 -2.37541 16392 ft 329 kts 73°
2026-04-21 12:46 34.66849 -2.34933 16146 ft 317 kts 73°
2026-04-21 12:46 34.67509 -2.32433 15921 ft 306 kts 73°
2026-04-21 12:46 34.68151 -2.30000 15612 ft 299 kts 73°
2026-04-21 12:47 34.69019 -2.27784 15213 ft 295 kts 48°
2026-04-21 12:47 34.70692 -2.26411 14701 ft 292 kts 12°
2026-04-21 12:47 34.72644 -2.26435 14409 ft 275 kts 338°
2026-04-21 12:47 34.74352 -2.27400 13920 ft 271 kts 335°
2026-04-21 12:48 34.76166 -2.28093 13230 ft 277 kts 346°
2026-04-21 12:48 34.78055 -2.28426 12884 ft 268 kts 353°
2026-04-21 12:48 34.79891 -2.28555 12483 ft 262 kts 356°
2026-04-21 12:48 34.81698 -2.28571 11990 ft 259 kts 359°
2026-04-21 12:49 34.83499 -2.28516 11445 ft 259 kts
2026-04-21 12:49 34.85289 -2.28293 10884 ft 259 kts
2026-04-21 12:49 34.87042 -2.27845 10376 ft 257 kts 13°
2026-04-21 12:49 34.88761 -2.27280 9886 ft 254 kts 15°
2026-04-21 12:50 34.90452 -2.26638 9346 ft 251 kts 18°
2026-04-21 12:50 34.92022 -2.25912 9227 ft 232 kts 21°
2026-04-21 12:50 34.93437 -2.25121 8993 ft 218 kts 26°
2026-04-21 12:50 34.94771 -2.24247 8516 ft 218 kts 29°
2026-04-21 12:51 34.96067 -2.23290 8053 ft 218 kts 32°
2026-04-21 12:51 34.97168 -2.22051 7589 ft 217 kts 58°
2026-04-21 12:51 34.97631 -2.20340 7172 ft 213 kts 89°
2026-04-21 12:51 34.97379 -2.18594 6740 ft 208 kts 116°
2026-04-21 12:52 34.96908 -2.17589 6468 ft 204 kts 130°
2026-04-21 12:52 34.95722 -2.15869 6093 ft 197 kts 135°
2026-04-21 12:52 34.94832 -2.14635 5866 ft 190 kts 135°
2026-04-21 12:52 34.94250 -2.13824 5728 ft 185 kts 134°
2026-04-21 12:53 34.93142 -2.12277 5460 ft 182 kts 135°
2026-04-21 12:53 34.92309 -2.11114 5288 ft 183 kts 134°
2026-04-21 12:53 34.91739 -2.10317 5101 ft 187 kts 133°
2026-04-21 12:53 34.90877 -2.09108 4853 ft 189 kts 134°
2026-04-21 12:54 34.90031 -2.07913 4575 ft 188 kts 134°
2026-04-21 12:54 34.89172 -2.06710 4256 ft 188 kts 134°
2026-04-21 12:54 34.88322 -2.05505 3973 ft 185 kts 134°
2026-04-21 12:54 34.87495 -2.04350 3695 ft 177 kts 134°
2026-04-21 12:55 34.86689 -2.03227 3477 ft 176 kts 133°
2026-04-21 12:55 34.85903 -2.02115 3214 ft 168 kts 133°
2026-04-21 12:55 34.85151 -2.01059 2921 ft 160 kts 132°
2026-04-21 12:55 34.84438 -2.00056 2715 ft 159 kts 133°
2026-04-21 12:56 34.83715 -1.99048 2466 ft 156 kts 131°
2026-04-21 12:56 34.83010 -1.98060 2242 ft 154 kts 132°
2026-04-21 12:56 34.82313 -1.97074 2007 ft 152 kts 131°
2026-04-21 12:56 34.81621 -1.96095 1780 ft 152 kts 135°
2026-04-21 12:57 34.80931 -1.95128 1530 ft 149 kts 134°
2026-04-21 12:57 34.80297 -1.94262 1507 ft 124 kts 133°
2026-04-21 12:57 34.79839 -1.93621 1514 ft 77 kts 131°
2026-04-21 12:57 34.79566 -1.93231 1522 ft 55 kts 131°
2026-04-21 12:58 34.79372 -1.92964 1525 ft 26 kts 131°
2026-04-21 12:58 34.79280 -1.92836 1526 ft 13 kts 131°
2026-04-21 12:58 34.79221 -1.92773 1528 ft 10 kts 172°
2026-04-21 12:58 34.79167 -1.92815 1529 ft 9 kts 220°
2026-04-21 12:59 34.79118 -1.92865 1528 ft 9 kts 220°
2026-04-21 12:59 34.79071 -1.92914 1525 ft 9 kts 220°
2026-04-21 12:59 34.79022 -1.92965 1526 ft 9 kts 220°
2026-04-21 12:59 34.78971 -1.93018 1521 ft 10 kts 221°
2026-04-21 13:00 34.78916 -1.93078 1523 ft 12 kts 221°
2026-04-21 13:00 34.78844 -1.93154 1521 ft 15 kts 220°
2026-04-21 13:00 34.78755 -1.93246 1520 ft 18 kts 220°
2026-04-21 13:00 34.78662 -1.93344 1520 ft 17 kts 220°
2026-04-21 13:01 34.78573 -1.93440 1521 ft 17 kts 221°
2026-04-21 13:01 34.78485 -1.93530 1522 ft 16 kts 220°
2026-04-21 13:01 34.78418 -1.93617 1523 ft 13 kts 248°
2026-04-21 13:01 34.78460 -1.93707 1524 ft 13 kts 310°
2026-04-21 13:02 34.78516 -1.93787 1521 ft 12 kts 310°
2026-04-21 13:02 34.78575 -1.93860 1524 ft 12 kts 314°
2026-04-21 13:02 34.78619 -1.93902 1524 ft 0 kts 346°